Location: Chakepay
(13.3931°S, 72.1925°W)
Time: 07:27:26
(UTC+00:00)

DELTA 2 R/B(2) - Pass Details

Date: 15 November 2019
Orbit: 185 x 2604 km, 39.7° (Epoch: 08 December)

Event Time Altitude Azimuth Distance (km) Brightness Sun altitude
Exits shadow 09:19:20 24° 4° (N) 436 4.2 -12.7°
Drops below altitude 10° 09:20:16 10° 28° (NNE) 795 5.7 -12.5°
Sets 09:21:58 0° 39° (NE) 1,562 7.4 -12.1°
